Location: Unspecified
(58.7378°N, 0.0000°E)
Time: 05:21:03
(UTC+00:00)

CZ-6A DEB - Visible Passes

Search period start: 04 April 2026 00:00
Search period end: 14 April 2026 00:00
Orbit: 807 x 1274 km, 98.5° (Epoch: 29 March)

Date Brightness Start Highest point End Pass type
(mag) Time Alt. Az. Time Alt. Az. Time Alt. Az.
4 Apr ? 04:34:15 10° ENE 04:36:29 13° NE 04:38:42 10° N visible
4 Apr ? 20:39:13 10° NNE 20:44:22 53° E 20:49:43 10° S visible
4 Apr ? 22:24:14 10° N 22:29:02 37° WNW 22:33:59 10° WSW visible
5 Apr ? 00:10:22 10° N 00:12:28 12° NW 00:14:35 10° WNW visible
5 Apr ? 19:39:00 10° NE 19:43:07 23° E 19:47:22 10° SE visible
5 Apr ? 21:23:15 10° NNE 21:28:31 83° WNW 21:34:02 10° SSW visible
5 Apr ? 23:08:39 10° N 23:12:40 23° NW 23:16:46 10° W visible
6 Apr ? 04:18:55 10° NE 04:20:08 11° NNE 04:21:20 10° NNE visible
6 Apr ? 20:22:35 10° NNE 20:27:35 42° E 20:32:50 10° S visible
6 Apr ? 22:07:27 10° N 22:12:27 46° WNW 22:17:40 10° SW visible
6 Apr ? 23:53:18 10° N 23:56:05 15° NW 23:58:53 10° WNW visible
7 Apr ? 21:06:31 10° NNE 21:11:49 80° ESE 21:17:25 10° SSW visible
7 Apr ? 22:51:48 10° N 22:56:10 27° NW 23:00:41 10° WSW visible
8 Apr ? 20:05:58 10° NNE 20:10:48 34° E 20:15:52 10° SSE visible
8 Apr ? 21:50:40 10° NNE 21:55:50 57° WNW 22:01:17 10° SW visible
8 Apr ? 23:36:20 10° N 23:39:39 17° NW 23:43:02 10° W visible
9 Apr ? 20:49:48 10° NNE 20:55:06 65° ESE 21:00:44 10° S visible
9 Apr ? 22:34:57 10° N 22:39:37 33° NW 22:44:31 10° WSW visible
10 Apr ? 00:21:22 10° NNW 00:22:56 11° NNW 00:24:30 10° NW visible
10 Apr ? 19:49:23 10° NNE 19:53:58 28° E 19:58:47 10° SSE visible
10 Apr ? 21:33:53 10° NNE 21:39:11 71° WNW 21:44:50 10° SSW visible
10 Apr ? 23:19:23 10° N 23:23:11 20° NW 23:27:07 10° W visible
11 Apr ? 20:33:06 10° NNE 20:38:20 52° E 20:43:58 10° S visible
11 Apr ? 22:18:07 10° N 22:23:03 40° WNW 22:28:17 10° SW visible
12 Apr ? 00:04:07 10° N 00:06:33 13° NW 00:09:00 10° WNW visible
12 Apr ? 21:17:07 10° NNE 21:22:30 86° WNW 21:28:18 10° SSW visible
12 Apr ? 23:02:29 10° N 23:06:41 24° NW 23:11:06 10° W visible
13 Apr ? 20:16:26 10° NNE 20:21:34 42° E 20:27:06 10° SSE visible
13 Apr ? 22:01:17 10° N 22:06:26 49° WNW 22:11:59 10° SW visible
13 Apr ? 23:47:03 10° N 23:50:07 16° NW 23:53:17 10° WNW visible
